[Iaude] MPEC L09: 2022 KX6 [a=1.64,e=0.44,i=35.7,H=21.7]

mpec at marsden.cfa.harvard.edu mpec at marsden.cfa.harvard.edu
Thu Jun 2 06:58:09 EDT 2022


M.P.E.C. 2022-L09                                  Issued 2022 June 2, 10:56 UT

     The Minor Planet Electronic Circulars contain information on unusual
         minor planets and routine data on comets.  They are published
    on behalf of Division F of the International Astronomical Union by the
          Minor Planet Center, Smithsonian Astrophysical Observatory,
                          Cambridge, MA 02138, U.S.A.

             Prepared using the Tamkin Foundation Computer Network

                              MPC at CFA.HARVARD.EDU
            URL https://www.minorplanetcenter.net/    ISSN 1523-6714

                                    2022 KX6                                    


Observations:
     K22K06X* C2022 05 31.19411512 46 18.664-11 11 34.19         20.71GVEL009G96
     K22K06X  C2022 05 31.19935912 46 21.256-11 10 54.34         20.62GVEL009G96
     K22K06X  C2022 05 31.20460612 46 23.848-11 10 15.46         19.88GVEL009G96
     K22K06X  C2022 05 31.20984112 46 26.429-11 09 36.07         20.15GVEL009G96
     K22K06X mC2022 05 31.28272712 47 02.468-11 00 29.84         20.39GVEL009I52
     K22K06X mC2022 05 31.28335512 47 02.782-11 00 24.80         21.03GVEL009I52
     K22K06X mC2022 05 31.28398312 47 03.109-11 00 20.23         20.64GVEL009I52
     K22K06X mC2022 05 31.28461112 47 03.473-11 00 15.34         20.49GVEL009I52
     K22K06X KC2022 05 31.86142112 51 50.01 -09 49 56.2          19.7 GVEL009104
     K22K06X KC2022 05 31.86714712 51 52.71 -09 49 15.4          20.2 GVEL009104
     K22K06X KC2022 05 31.87265312 51 55.36 -09 48 36.1          19.6 GVEL009104
     K22K06X 2C2022 05 31.92461912 52 20.667-09 42 16.42         21.2 GVEL009J04
     K22K06X KC2022 05 31.93574312 52 26.998-09 40 26.33               XEL009Y00
     K22K06X KC2022 05 31.94867812 52 33.062-09 38 53.12         19.8 GXEL009Y00
     K22K06X KC2022 05 31.96142412 52 39.024-09 37 21.97         19.7 GXEL009Y00
     K22K06X mC2022 06 01.14830012 54 08.399-09 15 47.74         20.09GVEL009I52
     K22K06X mC2022 06 01.14877812 54 08.636-09 15 43.78         20.07GVEL009I52
     K22K06X mC2022 06 01.14925512 54 08.867-09 15 40.68         20.19GVEL009I52
     K22K06X mC2022 06 01.14973212 54 09.068-09 15 37.37         20.34GVEL009I52
     K22K06X  C2022 06 01.17669812 54 21.774-09 12 28.06         20.3 GVEL009654
     K22K06X  C2022 06 01.18471712 54 25.480-09 11 31.53         20.3 GVEL009654
     K22K06X  C2022 06 01.25976512 55 00.035-09 02 43.23         20.6 GVEL009654
     K22K06X  C2022 06 01.26778412 55 03.753-09 01 47.43         20.6 GVEL009654
     K22K06X  C2022 06 01.29309812 55 15.369-08 58 49.50         20.4 GVEL009654
     K22K06X  C2022 06 01.30061412 55 18.858-08 57 56.46         20.4 GVEL009654
     K22K06X bC2022 06 01.86962812 59 42.29 -07 52 58.5          21.0 GVEL009L01
     K22K06X bC2022 06 01.87293912 59 43.83 -07 52 36.2          20.9 GVEL009L01
     K22K06X bC2022 06 01.87459412 59 44.53 -07 52 24.7          20.7 GVEL009L01
     K22K06X KC2022 06 02.13681 13 01 42.67 -07 23 15.0          20.3 GVEL009H36
     K22K06X KC2022 06 02.14372 13 01 45.64 -07 22 29.1          19.8 GVEL009H36
     K22K06X KC2022 06 02.15032 13 01 48.51 -07 21 45.7          20.5 GVEL009H36
     K22K06X  C2022 06 02.19992013 02 10.552-07 16 17.16         20.9 GVEL009654
     K22K06X  C2022 06 02.23242013 02 24.518-07 12 43.41         20.5 GVEL009654
     K22K06X  C2022 06 02.26473513 02 38.405-07 09 11.25         20.1 GVEL009654

Observer details:
104 San Marcello Pistoiese.  Observers P. Bacci, M. Maestripieri.  Measurers
    P. Bacci, L. Tesi, G. Fagioli.  0.60-m F4 Reflector + CCD.
654 Table Mountain Observatory, Wrightwood-PHMC.  Observers N. Evans, P. Choi,
    N. Saini, C. Zhai, R. Trahan, M. Shao.  1.0-m Reflector + CCD.
G96 Mt. Lemmon Survey.  Observer G. J. Leonard.  Measurers E. J. Christensen,
    D. Fay, J. B. Fazekas, D. C. Fuls, A. R. Gibbs, A. D. Grauer, H. Groeller,
    J. K. Hogan, R. A. Kowalski, S. M. Larson, G. J. Leonard, D. Rankin, R. L.
    Seaman, A. Serrano, F. C. Shelly, K. W. Wierzchos.  1.5-m reflector + 10K
    CCD.
H36 Sandlot Observatory, Scranton.  Observer G. Hug.  .56 meter Reflector +
    CCD.
I52 Steward Observatory, Mt. Lemmon Station.  Observers A. Serrano, D. Rankin.
    Measurers E. J. Christensen, D. Fay, J. B. Fazekas, D. C. Fuls, A. R.
    Gibbs, A. D. Grauer, H. Groeller, J. K. Hogan, R. A. Kowalski, S. M.
    Larson, G. J. Leonard, D. Rankin, R. L. Seaman, A. Serrano, F. C. Shelly,
    K. W. Wierzchos.  1.0-m prime focus + CCD.
J04 ESA Optical Ground Station, Tenerife.  Observers P. Ruiz, M. Micheli, D.
    Fohring, L. Conversi, D. Koschny.  Measurers M. Micheli, R. Kresken, A.
    Knofel, M. Busch, E. Schwab.  1.0-m f/4.4 reflector + CCD.
L01 Visnjan Observatory, Tican.  Observers K. Korlevic, I. Lyon.  Measurer K.
    Korlevic.  1.0-m f/2.9 reflector + CCD.
Y00 SONEAR Observatory, Oliveira.  Observer C. Jacques.  0.45-m f/2.9 0.45-m
    f/2.9 reflector + CCD.

Orbital elements:
2022 KX6                                                 Earth MOID = 0.1350 AU
Epoch 2022 Jan. 21.0 TT = JDT 2459600.5                 Veres                   
M 328.07868              (2000.0)            P               Q                  
n   0.46767382     Peri.  288.03853     -0.82748914     -0.22449420             
a   1.6437686      Node   241.98535     +0.30260349     -0.95039488             
e   0.4369586      Incl.   35.65871     -0.47296180     -0.21529497             
P   2.11           H   21.78          G   0.15           U   9                  
Residuals in seconds of arc
220531 G96  0.1+  0.1-    220531 Y00  0.4-  0.7-    220601 654  0.2-  0.0
220531 G96  0.1+  0.4+    220531 Y00  0.1-  0.0     220601 L01  1.2-  0.5+
220531 G96  0.0   0.2-    220531 Y00  0.1+  0.1+    220601 L01  0.1-  0.5+
220531 G96  0.1-  0.1-    220601 I52  0.1-  0.5-    220601 L01  0.6-  0.8+
220531 I52  0.3-  0.3-    220601 I52  0.1+  0.1+    220602 H36  1.0+  0.0
220531 I52  0.3-  0.0     220601 I52  0.3+  0.1-    220602 H36  0.8+  0.3+
220531 I52  0.1-  0.1-    220601 I52  0.0   0.2-    220602 H36  1.0+  0.1+
220531 I52  0.7+  0.1+    220601 654  0.0   0.2-    220602 654  0.0   0.2-
220531 104  0.1-  0.8+    220601 654  0.1+  0.2-    220602 654  0.1-  0.2-
220531 104  0.3-  0.4+    220601 654  0.1-  0.0     220602 654  0.1-  0.2-
220531 104  0.4+  0.0     220601 654  0.2+  0.5-
220531 J04  0.1+  0.4-    220601 654  0.5-  0.3-

Ephemeris:
2022 KX6                 a,e,i = 1.64, 0.44, 36                  q = 0.9255
Date    TT    R. A. (2000) Decl.     Delta      r    Elong.  Phase     V
2022 05 03    06 23 26.8 -48 02 49   0.3061  1.0052    80.7    81.8    22.1
...
2022 05 18    09 51 56.1 -41 51 35   0.1966  1.0803   105.4    64.5    20.7
...
2022 05 26    11 53 16.5 -23 27 38   0.1953  1.1262   121.1    50.4    20.4
...
2022 06 01    12 52 57.1 -09 33 00   0.2293  1.1625   125.6    45.2    20.6
2022 06 02    13 00 41.4 -07 38 02   0.2372  1.1687   125.7    44.8    20.7
2022 06 03    13 07 55.3 -05 50 42   0.2457  1.1749   125.8    44.5    20.8
...
2022 06 09    13 42 50.0 +02 28 13   0.3048  1.2126   124.1    43.9    21.3
...
2022 06 17    14 14 36.2 +08 51 25   0.3977  1.2640   120.3    44.0    22.0
...
2022 07 02    14 53 17.0 +13 40 05   0.5924  1.3615   112.9    43.5    23.0

M. P. C. Staff               (C) Copyright 2022 MPC           M.P.E.C. 2022-L09




More information about the Iaude mailing list